Showing default

LEMUR 2 TOMATOKECHUP, 60471

Orbit data source: Space-Track

LEMUR 2 TOMATOKECHUP, 60471 is an American payload satellite in SSO that was launched on Fri, 16 Aug 2024 UTC via an FALCON 9 launch vehicle from the Air Force Western Test Range (AFWTR). Payloads include a variety of satellites, spacecraft, and rockets equipped with specific instruments for various scientific and technological missions. These include communications satellites like Starlink; space stations such as the ISS; scientific satellites like the Hubble; Earth observation satellites from companies like Planet Labs, Umbra, and HawkEye 360; GPS; miniature CubeSats for education and research; and military/defense satellites.

Loading next visibility...
LEMUR 2 TOMATOKECHUP details
Identifier
60471, 2024-149D
Orbit
SSO
Last TLE update7 hours ago
Origin
Flag of USSPIREG/HUBN (US)
ManufacturerSpire/Glasgow
MissionOperational spacecraft
Bus & MotorCUBESAT 16U, Unknown motor
Mass22 kg wet, 22 kg dry
Launch date (UTC)
2024-08-16 (4 months ago)
Launch vehicle
FALCON 9
Launch site
Air Force Western Test Range (AFWTR)
Object type
Payload
Rocket body
Debris
Shape & HBRUnknown
Radar Cross SectionMedium (>0.1 m² and <1 m²)

Expand to show TLE details & history

TLE from 7 hours ago
0 LEMUR 2 TOMATOKECHUP
1 60471U 24149D   24361.15338708  .00016418  00000-0  72592-3 0  9997
2 60471  97.4322  74.7698 0002097  18.5090 341.6221 15.21771513 19944
Epoch: 2024-12-26T03:40Z
Definitive object data (Epoch: 2024-12-26T03:40:52.643Z)
Latitude-0.00013°
Longitude-75.5864°
Altitude502.22 km
Speed7.614 km/s
True Right ascension04h 59m 04s
True Declination0° 00' 00"
Sunlit
Object was in full shadow at TLE epoch
Visualization TLE readout
Latitude60.16676°
Longitude-88.39016°
Altitude509.697 km
Speed7.615 km/s
Apparent Right ascension00h 06m 47s
Apparent Declination18° 36' 00"
Sunlit
Object is in full shadow
Visualization observer readout
Local Sidereal Time09:36:45
Azimuth321.564° NNW
Elevation-21.839°
Doppler factor1
Orbital elements
Apogee altitude498.904 km
Perigee altitude496.02 km
Semi-major axis6,875.599 km
Eccentricity0.0002097
Inclination97.4322°
RAAN74.7698°
Arg. of periapsis18.509°
True anomaly341.61452°
Mean anomaly341.6221°
Eccentric anomaly341.61831°
Mean motion3.80695 °/min
BSTAR0.00072592
Orbital period94.56 mins
Loading maneuver chart data...
Loading historical data...
Loading historical data...
Loading historical data...
Loading historical data...
Loading historical data...
Loading historical data...
Loading historical data...

LEMUR 2 TOMATOKECHUP Visibility forecast

Observer location: undefined°, undefined

Span
Click to sort rows by Start time (UTC) header in descending order
Start Az.
Max El. time (UTC)
Max El. Az.
Max El.
End time (UTC)
End Az.
5 mins2024-12-26 18:27:36.552Z342.22° N2024-12-26 18:29:36.552Z278.454° WNW32.484°2024-12-26 18:32:36.552Z218.083° SW
5 mins2024-12-27 05:04:36.552Z155.065° SSE2024-12-27 05:06:36.552Z60.954° ENE43.307°2024-12-27 05:09:36.552Z353.503° N
|